Time,TemperatureF,DewpointF,PressureIn,WindDirection,WindDirectionDegrees,WindSpeedMPH,WindSpeedGustMPH,Humidity,HourlyPrecipIn,Conditions,Clouds,dailyrainin,SolarRadiationWatts/m^2,SoftwareType,DateUTC
2013-10-04 00:25:00,56.0,52.0,-100.00,WNW,299,2.0,4.0,88,0.00,,,0.00,0.000000,,2013-10-04 04:25:00,
2013-10-04 01:18:00,56.0,52.0,-100.00,WNW,299,2.0,4.0,88,0.00,,,0.00,0.000000,,2013-10-04 05:18:00,
2013-10-04 01:25:00,56.0,51.0,-100.00,NW,305,2.0,3.0,83,0.00,,,0.00,0.000000,,2013-10-04 05:25:00,
2013-10-04 02:00:00,56.0,51.0,-100.00,NW,305,2.0,3.0,83,0.00,,,0.00,0.000000,,2013-10-04 06:00:00,
2013-10-04 02:10:00,56.0,51.0,-100.00,NW,305,2.0,3.0,83,0.00,,,0.00,0.000000,,2013-10-04 06:10:00,
2013-10-04 02:20:00,56.0,51.0,-100.00,NW,305,2.0,3.0,83,0.00,,,0.00,0.000000,,2013-10-04 06:20:00,
2013-10-04 02:25:00,55.0,50.0,-100.00,WNW,303,2.0,4.0,84,0.00,,,0.00,0.000000,,2013-10-04 06:25:00,
2013-10-04 02:59:00,55.0,50.0,-100.00,WNW,303,2.0,4.0,84,0.00,,,0.00,0.000000,,2013-10-04 06:59:00,
2013-10-04 03:09:00,55.0,50.0,-100.00,WNW,303,2.0,4.0,84,0.00,,,0.00,0.000000,,2013-10-04 07:09:00,
2013-10-04 03:19:00,55.0,50.0,-100.00,WNW,303,2.0,4.0,84,0.00,,,0.00,0.000000,,2013-10-04 07:19:00,
2013-10-04 03:25:00,53.0,50.0,-100.00,WNW,296,3.0,4.0,90,0.00,,,0.00,0.000000,,2013-10-04 07:25:00,
2013-10-04 03:59:00,53.0,50.0,-100.00,WNW,296,3.0,4.0,90,0.00,,,0.00,0.000000,,2013-10-04 07:59:00,
2013-10-04 04:09:00,53.0,50.0,-100.00,WNW,296,3.0,4.0,90,0.00,,,0.00,0.000000,,2013-10-04 08:09:00,
2013-10-04 04:18:00,53.0,50.0,-100.00,WNW,296,3.0,4.0,90,0.00,,,0.00,0.000000,,2013-10-04 08:18:00,
2013-10-04 04:25:00,52.0,49.0,-100.00,WNW,293,3.0,6.0,90,0.00,,,0.00,0.000000,,2013-10-04 08:25:00,
2013-10-04 04:59:00,52.0,49.0,-100.00,WNW,293,3.0,6.0,90,0.00,,,0.00,0.000000,,2013-10-04 08:59:00,
2013-10-04 05:09:00,52.0,49.0,-100.00,WNW,293,3.0,6.0,90,0.00,,,0.00,0.000000,,2013-10-04 09:09:00,
2013-10-04 05:18:00,52.0,49.0,-100.00,WNW,293,3.0,6.0,90,0.00,,,0.00,0.000000,,2013-10-04 09:18:00,
2013-10-04 05:25:00,51.0,49.0,-100.00,NW,307,2.0,4.0,92,0.00,,,0.00,0.000000,,2013-10-04 09:25:00,
2013-10-04 06:02:00,51.0,49.0,-100.00,NW,307,2.0,4.0,92,0.00,,,0.00,0.000000,,2013-10-04 10:02:00,
2013-10-04 06:12:00,51.0,49.0,-100.00,NW,307,2.0,4.0,92,0.00,,,0.00,0.000000,,2013-10-04 10:12:00,
2013-10-04 06:22:00,51.0,49.0,-100.00,NW,307,2.0,4.0,92,0.00,,,0.00,0.000000,,2013-10-04 10:22:00,
2013-10-04 06:25:00,50.0,48.0,-100.00,NW,308,2.0,4.0,93,0.00,,,0.00,0.000000,,2013-10-04 10:25:00,
2013-10-04 07:02:00,50.0,48.0,-100.00,NW,308,2.0,4.0,93,0.00,,,0.00,0.000000,,2013-10-04 11:02:00,
2013-10-04 07:12:00,50.0,48.0,-100.00,NW,308,2.0,4.0,93,0.00,,,0.00,0.000000,,2013-10-04 11:12:00,
2013-10-04 07:21:00,50.0,48.0,-100.00,NW,308,2.0,4.0,93,0.00,,,0.00,0.000000,,2013-10-04 11:21:00,
2013-10-04 07:25:00,50.0,48.0,-100.00,WNW,287,2.0,3.0,92,0.00,,,0.00,13.000000,,2013-10-04 11:25:00,
2013-10-04 08:02:00,50.0,48.0,-100.00,WNW,287,2.0,3.0,92,0.00,,,0.00,13.000000,,2013-10-04 12:02:00,
2013-10-04 08:11:00,50.0,48.0,-100.00,WNW,287,2.0,3.0,92,0.00,,,0.00,13.000000,,2013-10-04 12:11:00,
2013-10-04 08:21:00,50.0,48.0,-100.00,WNW,287,2.0,3.0,92,0.00,,,0.00,13.000000,,2013-10-04 12:21:00,
2013-10-04 08:25:00,60.0,51.0,-100.00,WNW,297,2.0,4.0,73,0.00,,,0.00,156.000000,,2013-10-04 12:25:00,
2013-10-04 09:01:00,60.0,51.0,-100.00,WNW,297,2.0,4.0,73,0.00,,,0.00,156.000000,,2013-10-04 13:01:00,
2013-10-04 09:12:00,60.0,51.0,-100.00,WNW,297,2.0,4.0,73,0.00,,,0.00,156.000000,,2013-10-04 13:12:00,
2013-10-04 09:21:00,60.0,51.0,-100.00,WNW,297,2.0,4.0,73,0.00,,,0.00,156.000000,,2013-10-04 13:21:00,
2013-10-04 09:25:00,67.0,51.0,-100.00,NNE,14,1.0,4.0,56,0.00,,,0.00,278.000000,,2013-10-04 13:25:00,
2013-10-04 10:25:00,70.0,48.0,-100.00,North,358,3.0,5.0,45,0.00,,,0.00,383.000000,,2013-10-04 14:25:00,
2013-10-04 11:25:00,70.0,45.0,-100.00,NE,47,2.0,6.0,41,0.00,,,0.00,345.000000,,2013-10-04 15:25:00,
2013-10-04 12:02:00,70.0,45.0,-100.00,NE,47,2.0,6.0,41,0.00,,,0.00,345.000000,,2013-10-04 16:02:00,
2013-10-04 12:12:00,70.0,45.0,-100.00,NE,47,2.0,6.0,41,0.00,,,0.00,345.000000,,2013-10-04 16:12:00,
2013-10-04 12:22:00,70.0,45.0,-100.00,NE,47,2.0,6.0,41,0.00,,,0.00,345.000000,,2013-10-04 16:22:00,
2013-10-04 12:25:00,69.0,46.0,-100.00,SSE,159,2.0,4.0,44,0.00,,,0.00,292.000000,,2013-10-04 16:25:00,
2013-10-04 13:02:00,69.0,46.0,-100.00,SSE,159,2.0,4.0,44,0.00,,,0.00,292.000000,,2013-10-04 17:02:00,
2013-10-04 13:12:00,69.0,46.0,-100.00,SSE,159,2.0,4.0,44,0.00,,,0.00,292.000000,,2013-10-04 17:12:00,
2013-10-04 13:22:00,69.0,46.0,-100.00,SSE,159,2.0,4.0,44,0.00,,,0.00,292.000000,,2013-10-04 17:22:00,
2013-10-04 13:25:00,67.0,46.0,-100.00,SE,142,3.0,5.0,47,0.00,,,0.00,218.000000,,2013-10-04 17:25:00,
2013-10-04 14:05:00,67.0,46.0,-100.00,SE,142,3.0,5.0,47,0.00,,,0.00,218.000000,,2013-10-04 18:05:00,
2013-10-04 14:15:00,67.0,46.0,-100.00,SE,142,3.0,5.0,47,0.00,,,0.00,218.000000,,2013-10-04 18:15:00,
2013-10-04 14:56:00,66.0,49.0,-100.00,SSE,150,3.0,5.0,55,0.00,,,0.00,298.000000,,2013-10-04 18:56:00,
2013-10-04 15:02:00,66.0,49.0,-100.00,SSE,150,3.0,5.0,55,0.00,,,0.00,298.000000,,2013-10-04 19:02:00,
2013-10-04 15:12:00,66.0,49.0,-100.00,SSE,150,3.0,5.0,55,0.00,,,0.00,298.000000,,2013-10-04 19:12:00,
2013-10-04 15:22:00,66.0,49.0,-100.00,SSE,150,3.0,5.0,55,0.00,,,0.00,298.000000,,2013-10-04 19:22:00,
2013-10-04 15:53:00,71.0,47.0,-100.00,SE,129,2.0,5.0,43,0.00,,,0.00,369.000000,,2013-10-04 19:53:00,
2013-10-04 16:02:00,71.0,47.0,-100.00,SE,129,2.0,5.0,43,0.00,,,0.00,369.000000,,2013-10-04 20:02:00,
2013-10-04 16:11:00,71.0,47.0,-100.00,SE,129,2.0,5.0,43,0.00,,,0.00,369.000000,,2013-10-04 20:11:00,
2013-10-04 16:22:00,71.0,47.0,-100.00,SE,129,2.0,5.0,43,0.00,,,0.00,369.000000,,2013-10-04 20:22:00,
2013-10-04 16:53:00,65.0,49.0,-100.00,South,187,2.0,7.0,57,0.00,,,0.00,257.000000,,2013-10-04 20:53:00,
2013-10-04 17:01:00,65.0,49.0,-100.00,South,187,2.0,7.0,57,0.00,,,0.00,257.000000,,2013-10-04 21:01:00,
2013-10-04 17:12:00,65.0,49.0,-100.00,South,187,2.0,7.0,57,0.00,,,0.00,257.000000,,2013-10-04 21:12:00,
2013-10-04 17:22:00,65.0,49.0,-100.00,South,187,2.0,7.0,57,0.00,,,0.00,257.000000,,2013-10-04 21:22:00,
2013-10-04 17:54:00,67.0,54.0,-100.00,SSE,165,2.0,4.0,63,0.00,,,0.00,101.000000,,2013-10-04 21:54:00,
2013-10-04 18:03:00,67.0,54.0,-100.00,SSE,165,2.0,4.0,63,0.00,,,0.00,101.000000,,2013-10-04 22:03:00,
2013-10-04 18:12:00,67.0,54.0,-100.00,SSE,165,2.0,4.0,63,0.00,,,0.00,101.000000,,2013-10-04 22:12:00,
2013-10-04 18:23:00,67.0,54.0,-100.00,SSE,165,2.0,4.0,63,0.00,,,0.00,101.000000,,2013-10-04 22:23:00,
2013-10-04 18:53:00,61.0,56.0,-100.00,North,3,1.0,2.0,85,0.00,,,0.00,19.000000,,2013-10-04 22:53:00,
2013-10-04 19:03:00,61.0,56.0,-100.00,North,3,1.0,2.0,85,0.00,,,0.00,19.000000,,2013-10-04 23:03:00,
2013-10-04 19:12:00,61.0,56.0,-100.00,North,3,1.0,2.0,85,0.00,,,0.00,19.000000,,2013-10-04 23:12:00,
2013-10-04 19:22:00,61.0,56.0,-100.00,North,3,1.0,2.0,85,0.00,,,0.00,19.000000,,2013-10-04 23:22:00,
2013-10-04 19:53:00,59.0,56.0,-100.00,West,266,0.0,2.0,89,0.00,,,0.00,1.000000,,2013-10-04 23:53:00,
2013-10-04 20:02:00,59.0,56.0,-100.00,West,266,0.0,2.0,89,0.00,,,0.00,1.000000,,2013-10-05 00:02:00,
2013-10-04 20:12:00,59.0,56.0,-100.00,West,266,0.0,2.0,89,0.00,,,0.00,1.000000,,2013-10-05 00:12:00,
2013-10-04 20:23:00,59.0,56.0,-100.00,West,266,0.0,2.0,89,0.00,,,0.00,1.000000,,2013-10-05 00:23:00,
2013-10-04 20:53:00,58.0,54.0,-100.00,North,350,1.0,2.0,87,0.00,,,0.00,0.000000,,2013-10-05 00:53:00,
2013-10-04 21:02:00,58.0,54.0,-100.00,North,350,1.0,2.0,87,0.00,,,0.00,0.000000,,2013-10-05 01:02:00,
2013-10-04 21:11:00,58.0,54.0,-100.00,North,350,1.0,2.0,87,0.00,,,0.00,0.000000,,2013-10-05 01:11:00,
2013-10-04 21:22:00,58.0,54.0,-100.00,North,350,1.0,2.0,87,0.00,,,0.00,0.000000,,2013-10-05 01:22:00,
2013-10-04 21:52:00,57.0,55.0,-100.00,North,351,1.0,2.0,93,0.00,,,0.00,0.000000,,2013-10-05 01:52:00,
2013-10-04 22:03:00,57.0,55.0,-100.00,North,351,1.0,2.0,93,0.00,,,0.00,0.000000,,2013-10-05 02:03:00,
2013-10-04 22:11:00,57.0,55.0,-100.00,North,351,1.0,2.0,93,0.00,,,0.00,0.000000,,2013-10-05 02:11:00,
2013-10-04 22:22:00,57.0,55.0,-100.00,North,351,1.0,2.0,93,0.00,,,0.00,0.000000,,2013-10-05 02:22:00,
2013-10-04 22:52:00,57.0,55.0,-100.00,NW,323,0.0,2.0,94,0.00,,,0.00,0.000000,,2013-10-05 02:52:00,
2013-10-04 23:03:00,57.0,55.0,-100.00,NW,323,0.0,2.0,94,0.00,,,0.00,0.000000,,2013-10-05 03:03:00,
2013-10-04 23:12:00,57.0,55.0,-100.00,NW,323,0.0,2.0,94,0.00,,,0.00,0.000000,,2013-10-05 03:12:00,
2013-10-04 23:23:00,57.0,55.0,-100.00,NW,323,0.0,2.0,94,0.00,,,0.00,0.000000,,2013-10-05 03:23:00,
2013-10-04 23:55:00,57.0,55.0,-100.00,North,2,0.0,2.0,94,0.00,,,0.00,0.000000,,2013-10-05 03:55:00,